![](https://secure.gravatar.com/avatar/e1f07f5a1039bcedb63fecc70f5623fc.jpg?s=120&d=mm&r=g)
SB KEPS @ AMSAT $ORB08003.O Orbital Elements 08003.OSCAR
HR AMSAT ORBITAL ELEMENTS FOR OSCAR SATELLITES FROM WA5QGD FORT WORTH,TX January 3, 2008 Send Subscribe/unsubscribe to KEPS at http://www.amsat.org/mailman/listinfo/keps BID: ORB08003.O TO ALL RADIO AMATEURS BT
Satellite: AO-07 Catalog number: 07530 Epoch time: 08002.65768752 Element set: 0070 Inclination: 101.4901 deg RA of node: 039.5937 deg Eccentricity: 0.0011884 Arg of perigee: 226.7834 deg Mean anomaly: 133.2245 deg Mean motion: 12.53573243 rev/day Decay rate: -2.8e-07 rev/day^2 Epoch rev: 51611 Checksum: 282
Satellite: AO-10 Catalog number: 14129 Epoch time: 08001.70306160 Element set: 0456 Inclination: 025.9454 deg RA of node: 237.8553 deg Eccentricity: 0.6042238 Arg of perigee: 086.4804 deg Mean anomaly: 336.4590 deg Mean motion: 02.05871848 rev/day Decay rate: -5.6e-07 rev/day^2 Epoch rev: 18465 Checksum: 302
Satellite: UO-11 Catalog number: 14781 Epoch time: 08002.69179365 Element set: 0561 Inclination: 098.1743 deg RA of node: 034.0621 deg Eccentricity: 0.0008127 Arg of perigee: 248.0801 deg Mean anomaly: 111.9529 deg Mean motion: 14.79605553 rev/day Decay rate: -2.04e-06 rev/day^2 Epoch rev: 27923 Checksum: 293
Satellite: RS-15 Catalog number: 23439 Epoch time: 08002.62796719 Element set: 0142 Inclination: 064.8190 deg RA of node: 044.3912 deg Eccentricity: 0.0152422 Arg of perigee: 154.4284 deg Mean anomaly: 206.4278 deg Mean motion: 11.27552157 rev/day Decay rate: -3.9e-07 rev/day^2 Epoch rev: 53618 Checksum: 298
Satellite: FO-29 Catalog number: 24278 Epoch time: 08002.87563247 Element set: 0677 Inclination: 098.5779 deg RA of node: 300.9551 deg Eccentricity: 0.0349945 Arg of perigee: 286.1613 deg Mean anomaly: 070.1280 deg Mean motion: 13.52935259 rev/day Decay rate: -6.2e-07 rev/day^2 Epoch rev: 56190 Checksum: 338
Satellite: SO-33 Catalog number: 25509 Epoch time: 08003.73936594 Element set: 101 Inclination: 031.4289 deg RA of node: 171.8201 deg Eccentricity: 0.0355439 Arg of perigee: 020.7157 deg Mean anomaly: 340.7486 deg Mean motion: 14.28191186 rev/day Decay rate: 2.46e-06 rev/day^2 Epoch rev: 47994 Checksum: 312
Satellite: AO-40 Catalog number: 26609 Epoch time: 08002.39817030 Element set: 986 Inclination: 007.2364 deg RA of node: 104.0231 deg Eccentricity: 0.7929633 Arg of perigee: 038.2054 deg Mean anomaly: 356.7900 deg Mean motion: 01.25583288 rev/day Decay rate: -2.63e-06 rev/day^2 Epoch rev: 3294 Checksum: 297
Satellite: VO-52 Catalog number: 28650 Epoch time: 08003.38500725 Element set: 820 Inclination: 097.8111 deg RA of node: 074.3850 deg Eccentricity: 0.0026428 Arg of perigee: 323.4961 deg Mean anomaly: 036.4407 deg Mean motion: 14.81404060 rev/day Decay rate: 1.64e-06 rev/day^2 Epoch rev: 14405 Checksum: 270
Satellite: PO-63 Catalog number: 29712 Epoch time: 08003.79406543 Element set: 62 Inclination: 097.8998 deg RA of node: 064.9335 deg Eccentricity: 0.0013995 Arg of perigee: 194.0028 deg Mean anomaly: 166.0791 deg Mean motion: 14.79966480 rev/day Decay rate: 5.12e-06 rev/day^2 Epoch rev: 5300 Checksum: 328
/EX SB KEPS @ AMSAT $ORB08003.D Orbital Elements 08003.MICROS
HR AMSAT ORBITAL ELEMENTS FOR THE MICROSATS FROM WA5QGD FORT WORTH,TX January 3, 2008 Send Subscribe/unsubscribe to KEPS at http://www.amsat.org/mailman/listinfo/keps BID: ORB08003.D TO ALL RADIO AMATEURS BT
Satellite: AO-16 Catalog number: 20439 Epoch time: 08002.46950894 Element set: 0218 Inclination: 098.2136 deg RA of node: 351.2157 deg Eccentricity: 0.0010448 Arg of perigee: 318.3007 deg Mean anomaly: 041.7387 deg Mean motion: 14.31780209 rev/day Decay rate: -3.0e-08 rev/day^2 Epoch rev: 93706 Checksum: 289
Satellite: LO-19 Catalog number: 20442 Epoch time: 08002.68427535 Element set: 0142 Inclination: 098.1894 deg RA of node: 000.4065 deg Eccentricity: 0.0011265 Arg of perigee: 314.9081 deg Mean anomaly: 045.1183 deg Mean motion: 14.32019254 rev/day Decay rate: -7.2e-07 rev/day^2 Epoch rev: 93724 Checksum: 273
Satellite: AO-27 Catalog number: 22825 Epoch time: 08002.65236297 Element set: 865 Inclination: 098.3619 deg RA of node: 329.1338 deg Eccentricity: 0.0009255 Arg of perigee: 036.3347 deg Mean anomaly: 323.8471 deg Mean motion: 14.29226731 rev/day Decay rate: -1.0e-08 rev/day^2 Epoch rev: 74398 Checksum: 319
Satellite: IO-26 Catalog number: 22826 Epoch time: 08002.80527452 Element set: 565 Inclination: 098.3549 deg RA of node: 330.2666 deg Eccentricity: 0.0009605 Arg of perigee: 033.6355 deg Mean anomaly: 326.5430 deg Mean motion: 14.29474178 rev/day Decay rate: -2.0e-08 rev/day^2 Epoch rev: 74409 Checksum: 305
Satellite: PO-28 Catalog number: 22829 Epoch time: 08002.59348708 Element set: 0840 Inclination: 098.3437 deg RA of node: 331.1975 deg Eccentricity: 0.0009738 Arg of perigee: 008.3597 deg Mean anomaly: 351.7753 deg Mean motion: 14.30176051 rev/day Decay rate: -7.9e-07 rev/day^2 Epoch rev: 74431 Checksum: 327
Satellite: GO-32 Catalog number: 25397 Epoch time: 08002.62299876 Element set: 0493 Inclination: 098.3889 deg RA of node: 045.8233 deg Eccentricity: 0.0001606 Arg of perigee: 041.5897 deg Mean anomaly: 318.5391 deg Mean motion: 14.23135917 rev/day Decay rate: -1.25e-06 rev/day^2 Epoch rev: 49252 Checksum: 330
Satellite: MO-46 Catalog number: 26548 Epoch time: 08002.76597308 Element set: 988 Inclination: 064.5580 deg RA of node: 285.2087 deg Eccentricity: 0.0009746 Arg of perigee: 346.1348 deg Mean anomaly: 013.9513 deg Mean motion: 14.83215035 rev/day Decay rate: 7.1e-07 rev/day^2 Epoch rev: 39313 Checksum: 322
Satellite: NO-44 Catalog number: 26931 Epoch time: 08002.49015076 Element set: 0771 Inclination: 067.0530 deg RA of node: 354.0829 deg Eccentricity: 0.0004841 Arg of perigee: 262.4895 deg Mean anomaly: 097.5659 deg Mean motion: 14.29507029 rev/day Decay rate: 1.5e-07 rev/day^2 Epoch rev: 32658 Checksum: 312
Satellite: SO-50 Catalog number: 27607 Epoch time: 08002.61863740 Element set: 0495 Inclination: 064.5572 deg RA of node: 199.4807 deg Eccentricity: 0.0076488 Arg of perigee: 313.0525 deg Mean anomaly: 046.4166 deg Mean motion: 14.71315230 rev/day Decay rate: -1.01e-06 rev/day^2 Epoch rev: 27046 Checksum: 295
Satellite: CO-55 Catalog number: 27844 Epoch time: 08002.64888515 Element set: 202 Inclination: 098.7181 deg RA of node: 013.2179 deg Eccentricity: 0.0009136 Arg of perigee: 234.8267 deg Mean anomaly: 125.2051 deg Mean motion: 14.20551926 rev/day Decay rate: 6.0e-08 rev/day^2 Epoch rev: 23379 Checksum: 295
Satellite: CO-57 Catalog number: 27848 Epoch time: 08003.61102466 Element set: 159 Inclination: 098.7176 deg RA of node: 013.2985 deg Eccentricity: 0.0009129 Arg of perigee: 237.0001 deg Mean anomaly: 123.0296 deg Mean motion: 14.20365890 rev/day Decay rate: 2.7e-07 rev/day^2 Epoch rev: 23390 Checksum: 291
Satellite: AO-51 Catalog number: 28375 Epoch time: 08002.56238131 Element set: 0997 Inclination: 098.0887 deg RA of node: 036.3542 deg Eccentricity: 0.0083804 Arg of perigee: 298.9935 deg Mean anomaly: 060.2873 deg Mean motion: 14.40592728 rev/day Decay rate: 1.6e-07 rev/day^2 Epoch rev: 18441 Checksum: 330
Satellite: CO-56 Catalog number: 28941 Epoch time: 08002.90798872 Element set: 0764 Inclination: 098.1090 deg RA of node: 092.1924 deg Eccentricity: 0.0196086 Arg of perigee: 281.5052 deg Mean anomaly: 076.4241 deg Mean motion: 15.47829846 rev/day Decay rate: 1.3284e-04 rev/day^2 Epoch rev: 10424 Checksum: 334
Satellite: HO-59 Catalog number: 29484 Epoch time: 08003.66183373 Element set: 4 Inclination: 098.2580 deg RA of node: 091.2033 deg Eccentricity: 0.0147035 Arg of perigee: 257.6470 deg Mean anomaly: 100.8377 deg Mean motion: 15.68656181 rev/day Decay rate: 4.4771e-04 rev/day^2 Epoch rev: 7231 Checksum: 311
Satellite: NO-61 Catalog number: 29664 Epoch time: 07359.16654419 Element set: 738 Inclination: 051.6179 deg RA of node: 150.0690 deg Eccentricity: 0.0003189 Arg of perigee: 248.8461 deg Mean anomaly: 111.8136 deg Mean motion: 16.51627846 rev/day Decay rate: 1.4620719e-01 rev/day^2 Epoch rev: 5877 Checksum: 345
Satellite: CP4 Catalog number: 31122 Epoch time: 08002.68342450 Element set: 0227 Inclination: 098.0647 deg RA of node: 074.2944 deg Eccentricity: 0.0086520 Arg of perigee: 125.7593 deg Mean anomaly: 235.1659 deg Mean motion: 14.55070997 rev/day Decay rate: 5.51e-06 rev/day^2 Epoch rev: 03786 Checksum: 305
Satellite: CP3 Catalog number: 31128 Epoch time: 08002.69959404 Element set: 0223 Inclination: 098.0612 deg RA of node: 073.0083 deg Eccentricity: 0.0103598 Arg of perigee: 129.2360 deg Mean anomaly: 231.8089 deg Mean motion: 14.51899788 rev/day Decay rate: -4.6e-07 rev/day^2 Epoch rev: 03777 Checksum: 313
Satellite: LIBERT Catalog number: 31129 Epoch time: 08003.71749379 Element set: 641 Inclination: 098.0622 deg RA of node: 074.0114 deg Eccentricity: 0.0103494 Arg of perigee: 126.1809 deg Mean anomaly: 234.9003 deg Mean motion: 14.51991571 rev/day Decay rate: 3.39e-06 rev/day^2 Epoch rev: 3790 Checksum: 284
/EX SB KEPS @ AMSAT $ORB08003.W Orbital Elements 08003.WEATHER
HR AMSAT ORBITAL ELEMENTS FOR WEATHER SATELLITES FROM WA5QGD FORT WORTH,TX January 3, 2008 Send Subscribe/unsubscribe to KEPS at http://www.amsat.org/mailman/listinfo/keps BID: ORB08003.W TO ALL RADIO AMATEURS BT
Satellite: NOAA-10 Catalog number: 16969 Epoch time: 08002.94883759 Element set: 0950 Inclination: 098.7356 deg RA of node: 025.1447 deg Eccentricity: 0.0011895 Arg of perigee: 308.9609 deg Mean anomaly: 051.0511 deg Mean motion: 14.27345902 rev/day Decay rate: -3.9e-07 rev/day^2 Epoch rev: 10772 Checksum: 320
Satellite: NOAA-11 Catalog number: 19531 Epoch time: 08002.69855746 Element set: 0981 Inclination: 098.8049 deg RA of node: 094.3254 deg Eccentricity: 0.0011476 Arg of perigee: 179.2265 deg Mean anomaly: 180.8931 deg Mean motion: 14.14860955 rev/day Decay rate: -1.45e-06 rev/day^2 Epoch rev: 99436 Checksum: 340
